BG9VZ-13 Weather Reports


Display with metric or nautical units.
time (UTC)temp
F
wind
direction
speed
MPH
gust
MPH
rain 1hr
in
rain 24hr
in
rain mn
in
humidity
%
barometer
mb
20260505233850 64 0 0.0 0.0 0.00 0.00 0.00 39 771.4
20260505230852 64 0 0.0 0.0 0.00 0.00 0.00 39 771.2
20260505223853 64 0 0.0 0.0 0.00 0.00 0.00 38 770.8
20260505220854 64 0 0.0 0.0 0.00 0.00 0.00 38 770.5
20260505213855 64 0 0.0 0.0 0.00 0.00 0.00 37 769.9
20260505210857 64 0 0.0 0.0 0.00 0.00 0.00 36 769.4
20260505203858 64 0 0.0 0.0 0.00 0.00 0.00 36 768.8
20260505200859 64 0 0.0 0.0 0.00 0.00 0.00 37 768.4
20260505193900 65 0 0.0 0.0 0.00 0.00 0.00 37 768.1
20260505190901 65 0 0.0 0.0 0.00 0.00 0.00 37 767.7
20260505183902 65 0 0.0 0.0 0.00 0.00 0.00 37 767.7
20260505180903 65 0 0.0 0.0 0.00 0.00 0.00 37 767.3
20260505173905 65 0 0.0 0.0 0.00 0.00 0.00 37 767.2
20260505170906 65 0 0.0 0.0 0.00 0.00 0.00 37 766.7
20260505163907 65 0 0.0 0.0 0.00 0.00 0.00 37 766.3
20260505160908 65 0 0.0 0.0 0.00 0.00 0.00 37 765.7
20260505150910 65 0 0.0 0.0 0.00 0.00 0.00 36 764.5
20260505123915 65 0 0.0 0.0 0.00 0.00 0.00 35 761.1
20260505120916 65 0 0.0 0.0 0.00 0.00 0.00 35 760.4
20260505113917 65 0 0.0 0.0 0.00 0.00 0.00 34 759.7
20260505110918 65 0 0.0 0.0 0.00 0.00 0.00 34 759.0
20260505100920 66 0 0.0 0.0 0.00 0.00 0.00 33 758.2
20260505093921 66 0 0.0 0.0 0.00 0.00 0.00 32 758.3
20260505090922 66 0 0.0 0.0 0.00 0.00 0.00 31 758.3
20260505083923 66 0 0.0 0.0 0.00 0.00 0.00 30 758.3
20260505080924 66 0 0.0 0.0 0.00 0.00 0.00 29 758.5
20260505073925 67 0 0.0 0.0 0.00 0.00 0.00 26 758.7
20260505070926 67 0 0.0 0.0 0.00 0.00 0.00 29 758.9
20260505063925 66 0 0.0 0.0 0.00 0.00 0.00 36 759.6
20260505060926 66 0 0.0 0.0 0.00 0.00 0.00 39 760.1
20260505053927 65 0 0.0 0.0 0.00 0.00 0.00 39 760.5
20260505050928 65 0 0.0 0.0 0.00 0.00 0.00 40 761.4
20260505040930 65 0 0.0 0.0 0.00 0.00 0.00 40 762.8
20260505033931 64 0 0.0 0.0 0.00 0.00 0.00 41 763.3
20260505030932 64 0 0.0 0.0 0.00 0.00 0.00 41 763.7
20260505023933 64 0 0.0 0.0 0.00 0.00 0.00 41 764.4
20260505020935 64 0 0.0 0.0 0.00 0.00 0.00 41 764.7
20260505013936 64 0 0.0 0.0 0.00 0.00 0.00 42 764.9
20260505010938 64 0 0.0 0.0 0.00 0.00 0.00 42 765.3
20260505003939 64 0 0.0 0.0 0.00 0.00 0.00 42 765.3
20260505000940 64 0 0.0 0.0 0.00 0.00 0.00 42 765.6